LiveATC.Net - Listen to live air traffic control over the Internet! Contact LiveATC.net for advertising information


ICAO: SUMU  IATA: MVD   Airport: Carrasco General Cesareo L. Berisso International Airport
City: Montevideo
Country: Uruguay   Continent: South America
SUMU METAR Weather: SUMU 100800Z 14008KT 9999 SCT012 SCT200 23/21 Q1014 NOSIG
SUMU Flight Activity (FlightAware)
SUMU Twr/App
Feed Status: DOWN
Last heard on: 2016-02-10 06:31:06 (0 days 2 hours 8 minutes ago)
SUMU Twr/App Audio Archives
FacilityFrequency
SUMU Approach119.200
SUMU Tower118.100

Sponsored by Aeroclub Aerosur - Escuela de Vuelo

NOTICE

Unauthorized use prohibited. See LiveATC.net Terms of Service


Find LiveATC Audio Streams


Airport/ARTCC Code

Frequency
(e.g., 124.400, 128.75)
Site-wide search

Browse LiveATC Feeds
LiveATC Coverage Map
Top 50 LiveATC Feeds
Bad Weather Areas

LiveATC FAQ
Offer a LiveATC Feed
Contact LiveATC.net
Press Inquiries

LiveATC on iPhone
LiveATC on Android

Windows Phone
Windows 8/10

LiveATC Mobile
(Mobile browser)

ATC Audio Archives
Interesting Recordings

LiveATC Forums


Home Page
About LiveATC.net
Make a Donation
LiveATC Store

Terms of Use
Privacy Policy

Canadian Air Freqs

AIRMETs/SIGMETs

FAA Airport Status
Nat'l Airspace Status
Arrival Demand Charts


Server Software By:
Icecast.org
Liquidsoap

Please make a donation to help us keep growing!